[[{"header":{"parameterUnit":"m.s-1","parameterCategory":1,"la1":30.2991,"la2":30.254,"lo1":-89.0895,"lo2":-89.0444,"dy":0.0017,"dx":0.0017,"nx":28,"ny":28,"refTime":"2026-01-11T09:00:00:Z","depth":0,"parameterNumber":2,"parameterNumberName":"U-component_of_WINDS"},"data":[0,0,0,0,0,0,0,0,0,0,0,0,0,0,0,0,0,0,0,0,0,0,0,0,0,0,0,0,0,0,0,0,0,0,0,0,0,0,0,0,0,0,0,0,0,0,0,0,0,0,0,0,0,0,0,0,0,0,-0.6535,-0.6535,0,-0.6527,-0.6527,-0.6527,-0.651,-0.651,-0.6509,-0.6509,-0.6501,-0.6502,-0.6502,0,0,0,0,0,0,0,0,0,0,0,0,0,-0.6536,-0.6536,-0.6535,-0.6535,-0.6535,-0.6527,-0.6527,-0.6527,-0.651,-0.651,-0.6509,-0.6509,-0.6501,-0.6502,-0.6502,0,0,0,0,0,0,0,0,0,0,0,0,0,-0.6533,-0.6536,-0.6535,-0.6525,-0.6524,-0.6527,-0.6527,-0.6526,-0.651,-0.651,-0.6509,-0.6509,-0.6501,-0.6501,-0.6502,-0.6513,0,0,-0.6502,-0.6502,0,0,0,0,0,0,0,0,-0.6533,-0.6533,-0.6527,-0.6526,-0.6525,-0.6519,-0.6524,-0.6522,-0.651,-0.6516,-0.6509,-0.6508,-0.6508,-0.6507,-0.6507,-0.6512,-0.6512,-0.6502,-0.6502,-0.6502,-0.6502,0,0,0,0,0,0,0,-0.6533,-0.6533,-0.6532,-0.6527,-0.6526,-0.6522,-0.6521,-0.6524,-0.6515,-0.6515,-0.6514,-0.6513,-0.6507,-0.6507,-0.6507,-0.6512,-0.6502,-0.6502,-0.6502,-0.6503,-0.6526,-0.6527,0,0,0,0,0,0,-0.6535,-0.6533,-0.6532,-0.6531,-0.6528,-0.6522,-0.6521,-0.6521,-0.6514,-0.6513,-0.6513,-0.6512,-0.6507,-0.6506,-0.6506,-0.6519,-0.6502,-0.6503,-0.6503,-0.6526,-0.6526,-0.6527,0,0,0,0,0,0,-0.6535,-0.6535,-0.6532,-0.6532,-0.6531,-0.6522,-0.6523,-0.6521,-0.6521,-0.6513,-0.6512,-0.6515,-0.6506,-0.6506,-0.6511,-0.6518,-0.6503,-0.6503,-0.6525,-0.6526,-0.6526,-0.6544,0,0,0,0,0,0,-0.6535,-0.6535,-0.6539,-0.6532,-0.6531,-0.6537,-0.6524,-0.6522,-0.6521,-0.652,-0.6514,-0.6513,-0.6506,-0.6511,-0.6511,-0.6518,-0.6503,-0.6524,-0.6525,-0.6526,-0.6543,-0.6546,-0.6548,0,0,0,0,0,-0.6535,-0.6544,-0.6539,-0.6539,-0.6536,-0.6538,-0.6537,-0.6529,-0.6522,-0.6526,-0.6521,-0.6513,-0.6517,-0.6512,-0.6512,-0.6519,-0.6524,-0.6525,-0.6526,-0.6542,-0.6545,-0.6548,0,0,0,0,0,0,-0.6553,-0.6543,-0.6537,-0.6545,-0.6542,-0.6535,-0.654,-0.6533,-0.6532,-0.6531,-0.652,-0.6519,-0.6526,-0.6523,-0.6517,-0.6529,-0.6519,-0.6521,-0.6531,-0.6534,-0.6536,-0.6537,-0.6503,0,0,0,0,0,-0.6557,-0.6559,-0.6551,-0.6559,-0.6557,-0.6549,-0.6549,-0.6543,-0.654,-0.6539,-0.6534,-0.6531,-0.6532,-0.6533,-0.6533,-0.6542,-0.6541,-0.6547,-0.6549,-0.6551,-0.6553,-0.6558,-0.656,-0.6531,-0.6531,-0.6531,0,0,-0.6568,-0.6563,-0.6564,-0.6562,-0.6559,-0.6561,-0.6548,-0.6551,-0.6553,-0.6539,-0.6544,-0.654,-0.6536,-0.6544,-0.6547,-0.6541,-0.6561,-0.6553,-0.6555,-0.6555,-0.6559,-0.6562,-0.6564,-0.6531,-0.6531,-0.6531,0,0,-0.6587,-0.6583,-0.6589,-0.6586,-0.6582,-0.6576,-0.6577,-0.6571,-0.6568,-0.6572,-0.6562,-0.6564,-0.6565,-0.6563,-0.6562,-0.658,-0.6573,-0.658,-0.6593,-0.6598,-0.66,-0.6602,-0.6609,-0.6611,-0.6582,-0.6582,-0.6582,0,-0.66,-0.6603,-0.6593,-0.6597,-0.6596,-0.6583,-0.6589,-0.6587,-0.6583,-0.6583,-0.6577,-0.6578,-0.6575,-0.6581,-0.6586,-0.6585,-0.6587,-0.6581,-0.66,-0.6602,-0.6604,-0.661,-0.6613,-0.6583,-0.6583,-0.6583,-0.6582,0,-0.6619,-0.6621,-0.6627,-0.6623,-0.6622,-0.6627,-0.6618,-0.6619,-0.6613,-0.6607,-0.6612,-0.6607,-0.6606,-0.6607,-0.6601,-0.6613,-0.661,-0.6602,-0.6592,-0.6608,-0.6614,-0.6616,-0.6584,-0.6584,-0.6584,-0.6583,0,0,-0.6651,-0.6641,-0.6643,-0.6641,-0.6635,-0.6636,-0.664,-0.6639,-0.664,-0.6637,-0.6641,-0.6642,-0.6635,-0.6634,-0.6627,-0.6631,-0.6646,-0.6623,-0.6623,-0.6628,-0.6659,-0.6665,-0.6668,-0.664,-0.6641,-0.6641,-0.6659,0,-0.6669,-0.6675,-0.6666,-0.6675,-0.6677,-0.6664,-0.6668,-0.6664,-0.6659,-0.666,-0.6655,-0.6656,-0.6646,-0.6645,-0.6649,-0.6643,-0.6652,-0.6642,-0.6644,-0.6644,-0.6646,-0.6671,-0.6677,-0.6694,-0.6661,-0.6662,-0.6662,0,-0.6692,-0.669,-0.6699,-0.6691,-0.6692,-0.6695,-0.6693,-0.6694,-0.669,-0.6686,-0.6684,-0.6676,-0.668,-0.6669,-0.6674,-0.6667,-0.6667,-0.6665,-0.6665,-0.6666,-0.6654,-0.6672,-0.67,-0.6702,-0.6665,-0.6665,-0.6665,0,-0.6715,-0.6714,-0.6719,-0.6718,-0.6709,-0.6712,-0.6709,-0.6704,-0.6704,-0.6702,-0.6702,-0.67,-0.67,-0.6699,-0.6691,-0.6684,-0.6697,-0.6685,-0.6694,-0.6694,-0.6698,-0.6698,-0.6726,-0.6697,-0.6697,-0.6697,-0.6697,0,-0.6737,-0.6742,-0.6729,-0.6732,-0.6738,-0.6727,-0.6734,-0.6729,-0.6725,-0.6727,-0.6716,-0.6718,-0.6707,-0.6708,-0.6702,-0.6707,-0.6706,-0.6704,-0.6702,-0.6705,-0.6705,-0.6705,-0.6704,-0.6697,-0.6697,-0.6697,-0.6697,0,-0.6763,-0.6754,-0.6759,-0.6751,-0.6749,-0.6753,-0.6746,-0.6749,-0.6743,-0.6746,-0.6746,-0.6736,-0.6737,-0.6728,-0.6727,-0.6723,-0.6731,-0.6727,-0.6733,-0.6732,-0.6741,-0.674,-0.6771,-0.6774,-0.6742,-0.6743,-0.6743,0,-0.6778,-0.6782,-0.6774,-0.6774,-0.6772,-0.6773,-0.6772,-0.6761,-0.6761,-0.6757,-0.676,-0.6759,-0.6759,-0.676,-0.6753,-0.6753,-0.6749,-0.6759,-0.6749,-0.6752,-0.675,-0.675,-0.675,-0.6762,-0.6762,-0.6763,-0.6763,0,-0.6806,-0.6801,-0.6801,-0.6799,-0.6798,-0.6796,-0.6793,-0.6794,-0.6783,-0.6783,-0.6784,-0.6783,-0.6782,-0.6782,-0.6779,-0.6776,-0.6768,-0.6766,-0.6768,-0.6772,-0.6775,-0.6774,-0.674,-0.6766,-0.6766,-0.6765,-0.6765,-0.6765,-0.6827,-0.683,-0.6825,-0.6825,-0.6821,-0.6819,-0.6821,-0.6815,-0.6815,-0.6813,-0.6807,-0.6808,-0.6803,-0.6799,-0.6797,-0.6798,-0.6793,-0.6795,-0.6796,-0.6797,-0.6799,-0.6774,-0.6797,-0.6797,-0.6797,-0.6797,-0.6797,0,-0.6855,-0.6851,-0.685,-0.6847,-0.6847,-0.6838,-0.6834,-0.6835,-0.6836,-0.6832,-0.6832,-0.6832,-0.6831,-0.6824,-0.6823,-0.6825,-0.6822,-0.6826,-0.6826,-0.6825,-0.6804,-0.6802,-0.6829,-0.6829,-0.6829,-0.6829,-0.6829,-0.6829,-0.6869,-0.6874,-0.6868,-0.6871,-0.6867,-0.6868,-0.6867,-0.6864,-0.6861,-0.6862,-0.6861,-0.6857,-0.6851,-0.685,-0.6849,-0.6847,-0.6847,-0.6853,-0.6849,-0.683,-0.6827,-0.6824,-0.6822,-0.6853,-0.6853,-0.6871,-0.6871,-0.6871]},{"header":{"parameterUnit":"m.s-1","parameterCategory":1,"la1":30.2991,"la2":30.254,"lo1":-89.0895,"lo2":-89.0444,"dy":0.0017,"dx":0.0017,"nx":28,"ny":28,"refTime":"2026-01-11T09:00:00:Z","depth":0,"parameterNumber":3,"parameterNumberName":"V-component_of_WINDS"},"data":[0,0,0,0,0,0,0,0,0,0,0,0,0,0,0,0,0,0,0,0,0,0,0,0,0,0,0,0,0,0,0,0,0,0,0,0,0,0,0,0,0,0,0,0,0,0,0,0,0,0,0,0,0,0,0,0,0,0,-3.3152,-3.3152,0,-3.3197,-3.3198,-3.3198,-3.3193,-3.3193,-3.3192,-3.3191,-3.3234,-3.3236,-3.3238,0,0,0,0,0,0,0,0,0,0,0,0,0,-3.3057,-3.3059,-3.3151,-3.3152,-3.3153,-3.3197,-3.3198,-3.3198,-3.3193,-3.3193,-3.3192,-3.3191,-3.3234,-3.3236,-3.3238,0,0,0,0,0,0,0,0,0,0,0,0,0,-3.31,-3.306,-3.3151,-3.3156,-3.3156,-3.3197,-3.3198,-3.3199,-3.3194,-3.3193,-3.3191,-3.319,-3.3233,-3.3236,-3.3238,-3.3277,0,0,-3.3247,-3.3248,0,0,0,0,0,0,0,0,-3.3098,-3.3103,-3.3154,-3.3155,-3.3156,-3.3189,-3.318,-3.3225,-3.3194,-3.3179,-3.3191,-3.319,-3.322,-3.3223,-3.3234,-3.3279,-3.328,-3.3247,-3.3249,-3.325,-3.3251,0,0,0,0,0,0,0,-3.3095,-3.3101,-3.3169,-3.3155,-3.3156,-3.3154,-3.3159,-3.3189,-3.3205,-3.3181,-3.318,-3.3186,-3.322,-3.3232,-3.3235,-3.3281,-3.3247,-3.3249,-3.3251,-3.3252,-3.336,-3.3362,0,0,0,0,0,0,-3.3091,-3.3099,-3.3168,-3.3171,-3.3124,-3.3157,-3.3162,-3.3179,-3.3205,-3.3207,-3.3187,-3.3186,-3.3228,-3.3232,-3.3237,-3.3285,-3.325,-3.3252,-3.3254,-3.3359,-3.3361,-3.3362,0,0,0,0,0,0,-3.3089,-3.3097,-3.3166,-3.3135,-3.3144,-3.316,-3.3179,-3.3181,-3.3192,-3.3209,-3.3212,-3.3196,-3.3227,-3.3233,-3.3267,-3.3286,-3.3253,-3.3256,-3.3358,-3.336,-3.3361,-3.3379,0,0,0,0,0,0,-3.3086,-3.3097,-3.3112,-3.3135,-3.3145,-3.3197,-3.318,-3.3182,-3.3198,-3.3196,-3.3219,-3.3221,-3.3227,-3.3263,-3.327,-3.3289,-3.3258,-3.3356,-3.3359,-3.3361,-3.3377,-3.3382,-3.3385,0,0,0,0,0,-3.3083,-3.3114,-3.3113,-3.3121,-3.3165,-3.3198,-3.3203,-3.321,-3.3199,-3.3214,-3.3225,-3.3221,-3.3283,-3.3267,-3.3274,-3.3294,-3.3355,-3.3358,-3.3361,-3.3375,-3.3381,-3.3385,0,0,0,0,0,0,-3.309,-3.3117,-3.3116,-3.3155,-3.3175,-3.3197,-3.3216,-3.3215,-3.3237,-3.3235,-3.3241,-3.3246,-3.3281,-3.3291,-3.3273,-3.3333,-3.3317,-3.3322,-3.3326,-3.3331,-3.3335,-3.3332,-3.326,0,0,0,0,0,-3.3097,-3.3122,-3.3144,-3.3177,-3.3187,-3.32,-3.3214,-3.3218,-3.3238,-3.3245,-3.3259,-3.3277,-3.3301,-3.3316,-3.3339,-3.3378,-3.3384,-3.3396,-3.34,-3.3403,-3.3407,-3.343,-3.3436,-3.3371,-3.3371,-3.3371,0,0,-3.311,-3.3128,-3.3143,-3.3179,-3.3194,-3.322,-3.3207,-3.3234,-3.3253,-3.3249,-3.3283,-3.3294,-3.3315,-3.3352,-3.3369,-3.3362,-3.3426,-3.3407,-3.3409,-3.3412,-3.3434,-3.344,-3.3445,-3.3373,-3.3373,-3.3373,0,0,-3.3147,-3.3163,-3.3193,-3.3209,-3.3233,-3.3242,-3.3249,-3.3273,-3.328,-3.3315,-3.3312,-3.3335,-3.3375,-3.3391,-3.3404,-3.3449,-3.3446,-3.3456,-3.3477,-3.35,-3.3505,-3.351,-3.3527,-3.3533,-3.346,-3.346,-3.346,0,-3.316,-3.3201,-3.3208,-3.3237,-3.3253,-3.3252,-3.3282,-3.3297,-3.3327,-3.3337,-3.3328,-3.3381,-3.3394,-3.3436,-3.3448,-3.3458,-3.3466,-3.3454,-3.3504,-3.3508,-3.3513,-3.3529,-3.3536,-3.3461,-3.3461,-3.3461,-3.346,0,-3.3216,-3.3244,-3.3265,-3.3296,-3.3314,-3.3343,-3.3355,-3.3372,-3.3374,-3.3384,-3.342,-3.3436,-3.3463,-3.3473,-3.3474,-3.3516,-3.351,-3.3503,-3.3486,-3.352,-3.3536,-3.3542,-3.3463,-3.3462,-3.3462,-3.3461,0,0,-3.3259,-3.3295,-3.3303,-3.3318,-3.3345,-3.3366,-3.3395,-3.3423,-3.3438,-3.3459,-3.3484,-3.3519,-3.3512,-3.3527,-3.353,-3.355,-3.3586,-3.354,-3.354,-3.3549,-3.3634,-3.364,-3.3647,-3.3584,-3.3585,-3.3586,-3.3632,0,-3.33,-3.3354,-3.3362,-3.3409,-3.3435,-3.3435,-3.3461,-3.348,-3.349,-3.3513,-3.3523,-3.3549,-3.3538,-3.3547,-3.3566,-3.3578,-3.3603,-3.3574,-3.3607,-3.3608,-3.3603,-3.3655,-3.3662,-3.3705,-3.3638,-3.3639,-3.364,0,-3.3355,-3.338,-3.343,-3.3455,-3.3466,-3.349,-3.3517,-3.3539,-3.356,-3.3566,-3.3584,-3.3585,-3.3615,-3.3598,-3.3639,-3.3619,-3.3633,-3.3641,-3.3643,-3.3647,-3.3627,-3.3662,-3.3719,-3.3726,-3.365,-3.3649,-3.3648,0,-3.3383,-3.3428,-3.3465,-3.3477,-3.3507,-3.3524,-3.3536,-3.3557,-3.3574,-3.3597,-3.3608,-3.3633,-3.3648,-3.3667,-3.3675,-3.3661,-3.3717,-3.3699,-3.3723,-3.3723,-3.3735,-3.3734,-3.3796,-3.3742,-3.3742,-3.3742,-3.3742,0,-3.3429,-3.346,-3.3478,-3.3501,-3.3535,-3.3544,-3.3578,-3.359,-3.3609,-3.3634,-3.3634,-3.3657,-3.3666,-3.3689,-3.3696,-3.373,-3.3736,-3.3741,-3.3743,-3.3742,-3.3742,-3.3752,-3.375,-3.3743,-3.3743,-3.3743,-3.3742,0,-3.3466,-3.348,-3.352,-3.3546,-3.3553,-3.3577,-3.3599,-3.3621,-3.3631,-3.3662,-3.3669,-3.3685,-3.3714,-3.3724,-3.3757,-3.3761,-3.3802,-3.38,-3.3795,-3.3796,-3.3819,-3.3817,-3.389,-3.3901,-3.3839,-3.3839,-3.384,0,-3.3495,-3.352,-3.3549,-3.3566,-3.3581,-3.3608,-3.3626,-3.3635,-3.3653,-3.3681,-3.3699,-3.3728,-3.3752,-3.3797,-3.3811,-3.3837,-3.3836,-3.386,-3.384,-3.3839,-3.3838,-3.3837,-3.384,-3.3864,-3.3865,-3.3865,-3.3866,0,-3.3546,-3.3552,-3.3578,-3.3607,-3.3629,-3.3652,-3.3674,-3.3688,-3.3701,-3.3721,-3.3751,-3.377,-3.3805,-3.3834,-3.3861,-3.3873,-3.3872,-3.3872,-3.3879,-3.3879,-3.3876,-3.3879,-3.3807,-3.387,-3.387,-3.3869,-3.3869,-3.3869,-3.3581,-3.3603,-3.3628,-3.3657,-3.3676,-3.3697,-3.3719,-3.3733,-3.3759,-3.379,-3.3793,-3.3826,-3.3848,-3.3884,-3.3898,-3.3923,-3.3916,-3.3926,-3.3929,-3.3932,-3.3934,-3.3871,-3.3928,-3.3928,-3.3928,-3.3927,-3.3927,0,-3.3632,-3.3649,-3.3676,-3.3708,-3.3732,-3.373,-3.3754,-3.3774,-3.3803,-3.3824,-3.3848,-3.3883,-3.3911,-3.3928,-3.3956,-3.3973,-3.3973,-3.398,-3.398,-3.3983,-3.3938,-3.393,-3.398,-3.398,-3.398,-3.398,-3.398,-3.398,-3.3662,-3.37,-3.3709,-3.3757,-3.3772,-3.3806,-3.382,-3.384,-3.3857,-3.3897,-3.3921,-3.3932,-3.3951,-3.3981,-3.4007,-3.4011,-3.4022,-3.403,-3.4033,-3.3991,-3.3986,-3.398,-3.3973,-3.4032,-3.4032,-3.4076,-3.4077,-3.4077]}]]